TimeEST,TemperatureF,Dew PointF,Humidity,Sea Level PressureIn,VisibilityMPH,Wind Direction,Wind SpeedMPH,Gust SpeedMPH,PrecipitationIn,Events,Conditions,WindDirDegrees,DateUTC
12:25 AM,-4.7,-9.9,78,29.79,-9999.0,Variable,4.6,13.8,N/A,,Unknown,0,2013-01-02 05:25:00
1:25 AM,-5.3,-10.5,78,29.79,-9999.0,Variable,5.8,13.8,0.03,,Unknown,0,2013-01-02 06:25:00
2:25 AM,-5.4,-10.8,77,29.81,-9999.0,Variable,6.9,16.1,0.04,,Unknown,0,2013-01-02 07:25:00
3:25 AM,-6.0,-11.4,77,29.81,-9999.0,WSW,6.9,20.7,N/A,,Unknown,250,2013-01-02 08:25:00
4:25 AM,-6.3,-11.7,77,29.80,-9999.0,Variable,6.9,13.8,0.03,,Unknown,0,2013-01-02 09:25:00
5:25 AM,-7.4,-12.6,78,29.81,-9999.0,Variable,3.5,-,N/A,,Unknown,0,2013-01-02 10:25:00
6:25 AM,-8.3,-13.5,78,29.82,-9999.0,Variable,4.6,-,0.06,,Unknown,0,2013-01-02 11:25:00
7:25 AM,-14.1,-18.2,82,29.84,-9999.0,Variable,2.3,-,N/A,,Unknown,0,2013-01-02 12:25:00
8:25 AM,-8.5,-14.1,77,29.84,-9999.0,Variable,5.8,-,0.03,,Unknown,0,2013-01-02 13:25:00
9:25 AM,-4.2,-12.3,68,29.86,-9999.0,Variable,6.9,16.1,0.10,,Unknown,0,2013-01-02 14:25:00
10:25 AM,-1.7,-11.0,64,29.86,-9999.0,WSW,6.9,24.2,0.02,,Unknown,240,2013-01-02 15:25:00
11:25 AM,0.3,-9.9,62,29.86,-9999.0,WSW,9.2,16.1,0.01,,Unknown,250,2013-01-02 16:25:00
12:28 PM,1.9,-8.7,61,29.86,-9999.0,Variable,5.8,20.7,0.01,,Unknown,0,2013-01-02 17:28:00
1:25 PM,1.9,-9.4,59,29.86,-9999.0,Variable,5.8,18.4,N/A,,Unknown,0,2013-01-02 18:25:00
2:26 PM,2.3,-8.7,60,29.89,-9999.0,Variable,5.8,19.6,N/A,,Unknown,0,2013-01-02 19:26:00
3:25 PM,0.7,-8.7,65,29.92,-9999.0,Variable,3.5,13.8,0.02,,Unknown,0,2013-01-02 20:25:00
4:25 PM,-1.5,-9.8,68,29.95,-9999.0,WSW,6.9,13.8,N/A,,Unknown,240,2013-01-02 21:25:00
5:25 PM,-3.3,-10.3,72,29.98,-9999.0,WSW,6.9,19.6,0.01,,Unknown,250,2013-01-02 22:25:00
6:25 PM,-4.4,-10.8,74,29.99,-9999.0,WSW,8.1,20.7,0.00,,Unknown,250,2013-01-02 23:25:00
7:25 PM,-5.3,-11.6,74,30.01,-9999.0,WSW,6.9,19.6,0.01,,Unknown,240,2013-01-03 00:25:00
8:25 PM,-6.3,-11.9,77,30.03,-9999.0,Variable,5.8,16.1,N/A,,Unknown,0,2013-01-03 01:25:00
9:28 PM,-6.9,-12.3,77,30.05,-9999.0,Variable,4.6,-,0.00,,Unknown,0,2013-01-03 02:28:00
10:25 PM,-7.4,-12.6,78,30.06,-9999.0,Variable,5.8,16.1,0.01,,Unknown,0,2013-01-03 03:25:00
11:25 PM,-7.2,-12.5,78,30.07,-9999.0,Variable,5.8,-,0.02,,Unknown,0,2013-01-03 04:25:00